Regional Weather Roundup
Issued by NWS State College, PA

Home | Current Version | Previous Version | Text Only | Print | Product List | Glossary On
Versions: 1 2 3 4 5 6 7 8 9 10 11 12 13 14 15 16 17 18 19 20 21 22 23 24 25 26 27 28 29 30 31 32 33 34 35 36 37 38 39 40 41 42 43 44 45 46 47 48 49 50
000
ASUS41 KCTP 200203
RWRCTP

REGIONAL WEATHER ROUNDUP
NATIONAL WEATHER SERVICE STATE COLLEGE PA
900 PM EST FRI DEC 19 2014

Note: "fair" indicates few or no clouds below 12,000 feet with no
significant weather and/or obstructions to visibility.

* = STATION THAT DOES NOT REPORT PRECIPITATION /E.G. RAIN...SNOW...ETC/
    THUNDER OR FOG.

PAZ002>004-007>009-013>016-020>023-029>032-200300-
WESTERN PENNSYLVANIA

CITY           SKY/WX    TMP DP  RH WIND       PRES   REMARKS
ERIE           MOCLDY    32  21  64 NW8       30.28R
MEADVILLE      CLOUDY    27  18  69 W6        30.25R
FRANKLIN*      CLOUDY    25  18  74 CALM      30.26R
NEW CASTLE       N/A     28  20  72 CALM      30.30R
BEAVER COUNTY  CLOUDY    30  21  69 NW6       30.27
BUTLER*        CLOUDY    28  19  69 CALM      30.28S
PITTSBURGH INT CLOUDY    30  22  72 NW9       30.26F
PITTSBURGH     CLOUDY    30  18  60 NW6       30.25S
INDIANA*       CLOUDY    28  19  69 NW8       30.28R
LATROBE        CLOUDY    30  21  69 NW7       30.28R
WASHINGTON CO* NOT AVBL
$$

PAZ004>006-010>012-017>019-024>028-033>037-041-042-045-046-049>053-200300-
CENTRAL PENNSYLVANIA

CITY           SKY/WX    TMP DP  RH WIND       PRES   REMARKS
BRADFORD       CLOUDY    21  17  84 NW7       30.17R WCI  12
DUBOIS         MOCLDY    22  18  85 W7        30.21R WCI  13
CLEARFIELD     CLEAR     25  17  72 W5        30.22R
JOHNSTOWN      CLOUDY    24  17  74 W14       30.17R WCI  12
ALTOONA        PTCLDY    27  19  72 NW10      30.21R
STATE COLLEGE  PTCLDY    28  19  69 NW7       30.20R
WILLIAMSPORT   CLOUDY    33  19  56 NW9       30.21R
SELINSGROVE    CLOUDY    31  22  69 CALM      30.22R
FT INDIANTOWN  CLOUDY    34  20  57 VRB7      30.20R
CAPITAL CITY   PTCLDY    32  21  64 W6        30.21R
HARRISBURG     MOCLDY    32  22  66 NW10      30.20R
YORK           CLEAR     27  20  75 W6        30.21R
$$

PAZ038>040-043-044-047-048-054-055-060>062-067>071-200300-
EASTERN PENNSYLVANIA

CITY           SKY/WX    TMP DP  RH WIND       PRES   REMARKS
SCRANTON       CLOUDY    29  21  72 N7        30.16S
MOUNT POCONO   CLOUDY    24  19  81 NW18G29   30.05F WCI  10
ALLENTOWN      CLOUDY    33  20  58 NW10      30.17S
QUAKERTOWN*    CLOUDY    32  21  64 N8        30.17R
READING        CLOUDY    34  21  59 NW6       30.19R
LANCASTER      CLOUDY    31  20  63 W3        30.20R
COATESVILLE    PTCLDY    28  23  80 NW6       30.18R
POTTSTOWN      CLOUDY    32  21  64 N5        30.20R
BLUE BELL      CLOUDY    34  23  64 CALM      30.18R
DOYLESTOWN     CLOUDY    30  20  66 NW8       30.17R
WILLOW GROVE   NOT AVBL
NORTH PHILA    PTCLDY    31  19  61 N6        30.21R
PHILADELPHIA   PTCLDY    33  21  61 N8        30.21R
$$



USA.gov is the U.S. government's official web portal to all federal, state and local government web resources and services.